owner,sensor,date,latitude,longitude,vertical_datum,mass_concentration_of_oxygen_in_sea_water,qcFlag 
SCCF RECON,ioos:station:SCCF:16:1,2009-11-01T00:00:00Z,26.4345,-81.9647,2.623,6.32,1111122 
SCCF RECON,ioos:station:SCCF:16:1,2009-11-01T01:00:00Z,26.4345,-81.9647,2.797,6.45,1111122 
SCCF RECON,ioos:station:SCCF:16:1,2009-11-01T02:00:00Z,26.4345,-81.9647,2.87,6.39,1111122 
SCCF RECON,ioos:station:SCCF:16:1,2009-11-01T03:00:00Z,26.4345,-81.9647,2.924,6.12,1111122 
SCCF RECON,ioos:station:SCCF:16:1,2009-11-01T04:00:00Z,26.4345,-81.9647,2.959,5.64,1111122 
SCCF RECON,ioos:station:SCCF:16:1,2009-11-01T05:00:00Z,26.4345,-81.9647,2.864,5.49,1111122 
SCCF RECON,ioos:station:SCCF:16:1,2009-11-01T06:00:00Z,26.4345,-81.9647,2.653,5.4,1111122 
SCCF RECON,ioos:station:SCCF:16:1,2009-11-01T07:00:00Z,26.4345,-81.9647,2.457,5.71,1111122 
SCCF RECON,ioos:station:SCCF:16:1,2009-11-01T08:00:00Z,26.4345,-81.9647,2.279,5.83,1111122 
SCCF RECON,ioos:station:SCCF:16:1,2009-11-01T09:00:00Z,26.4345,-81.9647,2.087,5.63,1111122 
SCCF RECON,ioos:station:SCCF:16:1,2009-11-01T10:00:00Z,26.4345,-81.9647,1.986,5.44,1111122 
SCCF RECON,ioos:station:SCCF:16:1,2009-11-01T11:00:00Z,26.4345,-81.9647,2.064,5.44,1111122 
SCCF RECON,ioos:station:SCCF:16:1,2009-11-01T12:00:00Z,26.4345,-81.9647,2.258,5.32,1111122 
SCCF RECON,ioos:station:SCCF:16:1,2009-11-01T13:00:00Z,26.4345,-81.9647,2.454,5.43,1111122 
SCCF RECON,ioos:station:SCCF:16:1,2009-11-01T14:00:00Z,26.4345,-81.9647,2.65,5.72,1111122 
SCCF RECON,ioos:station:SCCF:16:1,2009-11-01T15:00:00Z,26.4345,-81.9647,2.775,6.1,1111122 
SCCF RECON,ioos:station:SCCF:16:1,2009-11-01T16:00:00Z,26.4345,-81.9647,2.839,5.82,1111122 
SCCF RECON,ioos:station:SCCF:16:1,2009-11-01T17:00:00Z,26.4345,-81.9647,2.821,6.15,1111122 
SCCF RECON,ioos:station:SCCF:16:1,2009-11-01T18:00:00Z,26.4345,-81.9647,2.794,6.19,1111122 
SCCF RECON,ioos:station:SCCF:16:1,2009-11-01T19:00:00Z,26.4345,-81.9647,2.666,6.16,1111122 
SCCF RECON,ioos:station:SCCF:16:1,2009-11-01T20:00:00Z,26.4345,-81.9647,2.54,6.41,1111122 
SCCF RECON,ioos:station:SCCF:16:1,2009-11-01T21:00:00Z,26.4345,-81.9647,2.499,6.48,1111122 
SCCF RECON,ioos:station:SCCF:16:1,2009-11-01T22:00:00Z,26.4345,-81.9647,2.457,6.25,1111122 
SCCF RECON,ioos:station:SCCF:16:1,2009-11-01T23:00:00Z,26.4345,-81.9647,2.464,6.02,1111122 
SCCF RECON,ioos:station:SCCF:16:1,2009-11-02T00:00:00Z,26.4345,-81.9647,2.562,5.91,1111122 
SCCF RECON,ioos:station:SCCF:16:1,2009-11-02T01:00:00Z,26.4345,-81.9647,2.712,5.9,1111122 
SCCF RECON,ioos:station:SCCF:16:1,2009-11-02T02:00:00Z,26.4345,-81.9647,2.839,5.81,1111122 
SCCF RECON,ioos:station:SCCF:16:1,2009-11-02T03:00:00Z,26.4345,-81.9647,2.916,5.86,1111122 
SCCF RECON,ioos:station:SCCF:16:1,2009-11-02T04:00:00Z,26.4345,-81.9647,2.963,5.9,1111122 
SCCF RECON,ioos:station:SCCF:16:1,2009-11-02T05:00:00Z,26.4345,-81.9647,2.929,5.7,1111122 
SCCF RECON,ioos:station:SCCF:16:1,2009-11-02T06:00:00Z,26.4345,-81.9647,2.761,5.57,1111122 
SCCF RECON,ioos:station:SCCF:16:1,2009-11-02T07:00:00Z,26.4345,-81.9647,2.51,5.7,1111122 
SCCF RECON,ioos:station:SCCF:16:1,2009-11-02T08:00:00Z,26.4345,-81.9647,2.287,5.49,1111122 
SCCF RECON,ioos:station:SCCF:16:1,2009-11-02T09:00:00Z,26.4345,-81.9647,2.125,5.38,1111122 
SCCF RECON,ioos:station:SCCF:16:1,2009-11-02T10:00:00Z,26.4345,-81.9647,1.961,5.29,1111122 
SCCF RECON,ioos:station:SCCF:16:1,2009-11-02T11:00:00Z,26.4345,-81.9647,1.944,5.3,1111122 
SCCF RECON,ioos:station:SCCF:16:1,2009-11-02T12:00:00Z,26.4345,-81.9647,2.091,5.21,1111122 
SCCF RECON,ioos:station:SCCF:16:1,2009-11-02T13:00:00Z,26.4345,-81.9647,2.326,5.15,1111122 
SCCF RECON,ioos:station:SCCF:16:1,2009-11-02T14:00:00Z,26.4345,-81.9647,2.532,5.42,1111122 
SCCF RECON,ioos:station:SCCF:16:1,2009-11-02T15:00:00Z,26.4345,-81.9647,2.681,5.39,1111122 
SCCF RECON,ioos:station:SCCF:16:1,2009-11-02T16:00:00Z,26.4345,-81.9647,2.813,5.46,1111122 
SCCF RECON,ioos:station:SCCF:16:1,2009-11-02T17:00:00Z,26.4345,-81.9647,2.868,5.53,1111122 
SCCF RECON,ioos:station:SCCF:16:1,2009-11-02T18:00:00Z,26.4345,-81.9647,2.829,5.58,1111122 
SCCF RECON,ioos:station:SCCF:16:1,2009-11-02T19:00:00Z,26.4345,-81.9647,2.728,5.63,1111122 
SCCF RECON,ioos:station:SCCF:16:1,2009-11-02T20:00:00Z,26.4345,-81.9647,2.639,5.73,1111122 
SCCF RECON,ioos:station:SCCF:16:1,2009-11-02T21:00:00Z,26.4345,-81.9647,2.569,5.96,1111122 
SCCF RECON,ioos:station:SCCF:16:1,2009-11-02T22:00:00Z,26.4345,-81.9647,2.537,6.11,1111122 
SCCF RECON,ioos:station:SCCF:16:1,2009-11-02T23:00:00Z,26.4345,-81.9647,2.517,6.28,1111122 
SCCF RECON,ioos:station:SCCF:16:1,2009-11-03T00:00:00Z,26.4345,-81.9647,2.572,6.14,1111122 
SCCF RECON,ioos:station:SCCF:16:1,2009-11-03T01:00:00Z,26.4345,-81.9647,2.695,5.98,1111122 
SCCF RECON,ioos:station:SCCF:16:1,2009-11-03T02:00:00Z,26.4345,-81.9647,2.832,6.16,1111122 
SCCF RECON,ioos:station:SCCF:16:1,2009-11-03T03:00:00Z,26.4345,-81.9647,2.919,6.39,1111122 
SCCF RECON,ioos:station:SCCF:16:1,2009-11-03T04:00:00Z,26.4345,-81.9647,2.978,6.17,1111122 
SCCF RECON,ioos:station:SCCF:16:1,2009-11-03T05:00:00Z,26.4345,-81.9647,2.963,5.79,1111122 
SCCF RECON,ioos:station:SCCF:16:1,2009-11-03T06:00:00Z,26.4345,-81.9647,2.859,5.48,1111122 
SCCF RECON,ioos:station:SCCF:16:1,2009-11-03T07:00:00Z,26.4345,-81.9647,2.673,5.49,1111122 
SCCF RECON,ioos:station:SCCF:16:1,2009-11-03T08:00:00Z,26.4345,-81.9647,2.43,5.77,1111122 
SCCF RECON,ioos:station:SCCF:16:1,2009-11-03T09:00:00Z,26.4345,-81.9647,2.209,5.27,1111122 
SCCF RECON,ioos:station:SCCF:16:1,2009-11-03T10:00:00Z,26.4345,-81.9647,1.999,5.23,1111122 
SCCF RECON,ioos:station:SCCF:16:1,2009-11-03T11:00:00Z,26.4345,-81.9647,1.865,5.19,1111122 
SCCF RECON,ioos:station:SCCF:16:1,2009-11-03T12:00:00Z,26.4345,-81.9647,1.892,4.98,1111122 
SCCF RECON,ioos:station:SCCF:16:1,2009-11-03T13:00:00Z,26.4345,-81.9647,2.091,4.9,1111122 
SCCF RECON,ioos:station:SCCF:16:1,2009-11-03T14:00:00Z,26.4345,-81.9647,2.334,5.02,1111122 
SCCF RECON,ioos:station:SCCF:16:1,2009-11-03T15:00:00Z,26.4345,-81.9647,2.522,5.18,1111122 
SCCF RECON,ioos:station:SCCF:16:1,2009-11-03T16:00:00Z,26.4345,-81.9647,2.649,5.46,1111122 
SCCF RECON,ioos:station:SCCF:16:1,2009-11-03T17:00:00Z,26.4345,-81.9647,2.749,5.44,1111122 
SCCF RECON,ioos:station:SCCF:16:1,2009-11-03T18:00:00Z,26.4345,-81.9647,2.797,5.54,1111122 
SCCF RECON,ioos:station:SCCF:16:1,2009-11-03T19:00:00Z,26.4345,-81.9647,2.743,5.64,1111122 
SCCF RECON,ioos:station:SCCF:16:1,2009-11-03T20:00:00Z,26.4345,-81.9647,2.648,5.74,1111122 
SCCF RECON,ioos:station:SCCF:16:1,2009-11-03T21:00:00Z,26.4345,-81.9647,2.574,5.76,1111122 
SCCF RECON,ioos:station:SCCF:16:1,2009-11-03T22:00:00Z,26.4345,-81.9647,2.525,6.19,1111122 
SCCF RECON,ioos:station:SCCF:16:1,2009-11-03T23:00:00Z,26.4345,-81.9647,2.483,5.75,1111122 
SCCF RECON,ioos:station:SCCF:16:1,2009-11-04T00:00:00Z,26.4345,-81.9647,2.477,6.15,1111122 
SCCF RECON,ioos:station:SCCF:16:1,2009-11-04T01:00:00Z,26.4345,-81.9647,2.561,5.9,1111122 
SCCF RECON,ioos:station:SCCF:16:1,2009-11-04T02:00:00Z,26.4345,-81.9647,2.724,5.88,1111122 
SCCF RECON,ioos:station:SCCF:16:1,2009-11-04T03:00:00Z,26.4345,-81.9647,2.837,5.89,1111122 
SCCF RECON,ioos:station:SCCF:16:1,2009-11-04T04:00:00Z,26.4345,-81.9647,2.873,6.01,1111122 
SCCF RECON,ioos:station:SCCF:16:1,2009-11-04T05:00:00Z,26.4345,-81.9647,2.899,6.03,1111122 
SCCF RECON,ioos:station:SCCF:16:1,2009-11-04T06:00:00Z,26.4345,-81.9647,2.875,6.23,1111122 
SCCF RECON,ioos:station:SCCF:16:1,2009-11-04T07:00:00Z,26.4345,-81.9647,2.703,5.89,1111122 
SCCF RECON,ioos:station:SCCF:16:1,2009-11-04T08:00:00Z,26.4345,-81.9647,2.46,5.64,1111122 
SCCF RECON,ioos:station:SCCF:16:1,2009-11-04T09:00:00Z,26.4345,-81.9647,2.247,5.42,1111122 
SCCF RECON,ioos:station:SCCF:16:1,2009-11-04T10:00:00Z,26.4345,-81.9647,2.039,5.3,1111122 
SCCF RECON,ioos:station:SCCF:16:1,2009-11-04T11:00:00Z,26.4345,-81.9647,1.846,5.25,1111122 
SCCF RECON,ioos:station:SCCF:16:1,2009-11-04T12:00:00Z,26.4345,-81.9647,1.723,5.2,1111122 
SCCF RECON,ioos:station:SCCF:16:1,2009-11-04T13:00:00Z,26.4345,-81.9647,1.808,5.12,1111122 
SCCF RECON,ioos:station:SCCF:16:1,2009-11-04T14:00:00Z,26.4345,-81.9647,2.041,5.11,1111122 
SCCF RECON,ioos:station:SCCF:16:1,2009-11-04T15:00:00Z,26.4345,-81.9647,2.299,5.09,1111122 
SCCF RECON,ioos:station:SCCF:16:1,2009-11-04T16:00:00Z,26.4345,-81.9647,2.452,5.41,1111122 
SCCF RECON,ioos:station:SCCF:16:1,2009-11-04T17:00:00Z,26.4345,-81.9647,2.619,5.64,1111122 
SCCF RECON,ioos:station:SCCF:16:1,2009-11-04T18:00:00Z,26.4345,-81.9647,2.71,5.86,1111122 
SCCF RECON,ioos:station:SCCF:16:1,2009-11-04T19:00:00Z,26.4345,-81.9647,2.71,5.91,1111122 
SCCF RECON,ioos:station:SCCF:16:1,2009-11-04T20:00:00Z,26.4345,-81.9647,2.665,5.8,1111122 
SCCF RECON,ioos:station:SCCF:16:1,2009-11-04T21:00:00Z,26.4345,-81.9647,2.636,5.79,1111122 
SCCF RECON,ioos:station:SCCF:16:1,2009-11-04T22:00:00Z,26.4345,-81.9647,2.634,5.72,1111122 
SCCF RECON,ioos:station:SCCF:16:1,2009-11-04T23:00:00Z,26.4345,-81.9647,2.568,5.69,1111122 
SCCF RECON,ioos:station:SCCF:16:1,2009-11-05T00:00:00Z,26.4345,-81.9647,2.539,5.51,1111122 
SCCF RECON,ioos:station:SCCF:16:1,2009-11-05T01:00:00Z,26.4345,-81.9647,2.562,5.3,1111122 
SCCF RECON,ioos:station:SCCF:16:1,2009-11-05T02:00:00Z,26.4345,-81.9647,2.645,5.58,1111122 
SCCF RECON,ioos:station:SCCF:16:1,2009-11-05T03:00:00Z,26.4345,-81.9647,2.791,5.69,1111122 
SCCF RECON,ioos:station:SCCF:16:1,2009-11-05T04:00:00Z,26.4345,-81.9647,2.898,5.83,1111122 
SCCF RECON,ioos:station:SCCF:16:1,2009-11-05T05:00:00Z,26.4345,-81.9647,2.91,5.79,1111122 
SCCF RECON,ioos:station:SCCF:16:1,2009-11-05T06:00:00Z,26.4345,-81.9647,2.882,5.75,1111122 
SCCF RECON,ioos:station:SCCF:16:1,2009-11-05T07:00:00Z,26.4345,-81.9647,2.829,5.57,1111122 
SCCF RECON,ioos:station:SCCF:16:1,2009-11-05T08:00:00Z,26.4345,-81.9647,2.673,5.29,1111122 
SCCF RECON,ioos:station:SCCF:16:1,2009-11-05T09:00:00Z,26.4345,-81.9647,2.454,5.43,1111122 
SCCF RECON,ioos:station:SCCF:16:1,2009-11-05T10:00:00Z,26.4345,-81.9647,2.235,5.27,1111122 
SCCF RECON,ioos:station:SCCF:16:1,2009-11-05T11:00:00Z,26.4345,-81.9647,2.018,5.4,1111122 
SCCF RECON,ioos:station:SCCF:16:1,2009-11-05T12:00:00Z,26.4345,-81.9647,1.798,5.35,1111122 
SCCF RECON,ioos:station:SCCF:16:1,2009-11-05T13:00:00Z,26.4345,-81.9647,1.714,5.25,1111122 
SCCF RECON,ioos:station:SCCF:16:1,2009-11-05T14:00:00Z,26.4345,-81.9647,1.825,5.23,1111122 
SCCF RECON,ioos:station:SCCF:16:1,2009-11-05T15:00:00Z,26.4345,-81.9647,2.063,5.26,1111122 
SCCF RECON,ioos:station:SCCF:16:1,2009-11-05T16:00:00Z,26.4345,-81.9647,2.232,5.27,1111122 
SCCF RECON,ioos:station:SCCF:16:1,2009-11-05T17:00:00Z,26.4345,-81.9647,2.377,5.68,1111122 
SCCF RECON,ioos:station:SCCF:16:1,2009-11-05T18:00:00Z,26.4345,-81.9647,2.516,5.86,1111122 
SCCF RECON,ioos:station:SCCF:16:1,2009-11-05T19:00:00Z,26.4345,-81.9647,2.589,6.03,1111122 
SCCF RECON,ioos:station:SCCF:16:1,2009-11-05T20:00:00Z,26.4345,-81.9647,2.617,6.17,1111122 
SCCF RECON,ioos:station:SCCF:16:1,2009-11-05T21:00:00Z,26.4345,-81.9647,2.592,6.22,1111122 
SCCF RECON,ioos:station:SCCF:16:1,2009-11-05T22:00:00Z,26.4345,-81.9647,2.528,6.01,1111122 
SCCF RECON,ioos:station:SCCF:16:1,2009-11-05T23:00:00Z,26.4345,-81.9647,2.488,5.89,1111122 
SCCF RECON,ioos:station:SCCF:16:1,2009-11-06T00:00:00Z,26.4345,-81.9647,2.484,5.81,1111122 
SCCF RECON,ioos:station:SCCF:16:1,2009-11-06T01:00:00Z,26.4345,-81.9647,2.496,5.81,1111122 
SCCF RECON,ioos:station:SCCF:16:1,2009-11-06T02:00:00Z,26.4345,-81.9647,2.479,5.6,1111122 
SCCF RECON,ioos:station:SCCF:16:1,2009-11-06T03:00:00Z,26.4345,-81.9647,2.562,5.75,1111122 
SCCF RECON,ioos:station:SCCF:16:1,2009-11-06T04:00:00Z,26.4345,-81.9647,2.659,5.75,1111122 
SCCF RECON,ioos:station:SCCF:16:1,2009-11-06T05:00:00Z,26.4345,-81.9647,2.669,5.75,1111122 
SCCF RECON,ioos:station:SCCF:16:1,2009-11-06T06:00:00Z,26.4345,-81.9647,2.703,5.74,1111122 
SCCF RECON,ioos:station:SCCF:16:1,2009-11-06T07:00:00Z,26.4345,-81.9647,2.688,5.71,1111122 
SCCF RECON,ioos:station:SCCF:16:1,2009-11-06T08:00:00Z,26.4345,-81.9647,2.649,5.65,1111122 
SCCF RECON,ioos:station:SCCF:16:1,2009-11-06T09:00:00Z,26.4345,-81.9647,2.505,5.47,1111122 
SCCF RECON,ioos:station:SCCF:16:1,2009-11-06T10:00:00Z,26.4345,-81.9647,2.318,5.49,1111122 
SCCF RECON,ioos:station:SCCF:16:1,2009-11-06T11:00:00Z,26.4345,-81.9647,2.136,5.52,1111122 
SCCF RECON,ioos:station:SCCF:16:1,2009-11-06T12:00:00Z,26.4345,-81.9647,1.911,5.62,1111122 
SCCF RECON,ioos:station:SCCF:16:1,2009-11-06T13:00:00Z,26.4345,-81.9647,1.747,5.68,1111122 
SCCF RECON,ioos:station:SCCF:16:1,2009-11-06T14:00:00Z,26.4345,-81.9647,1.67,5.67,1111122 
SCCF RECON,ioos:station:SCCF:16:1,2009-11-06T15:00:00Z,26.4345,-81.9647,1.81,5.65,1111122 
SCCF RECON,ioos:station:SCCF:16:1,2009-11-06T16:00:00Z,26.4345,-81.9647,1.998,5.72,1111122 
SCCF RECON,ioos:station:SCCF:16:1,2009-11-06T17:00:00Z,26.4345,-81.9647,2.176,5.8,1111122 
SCCF RECON,ioos:station:SCCF:16:1,2009-11-06T18:00:00Z,26.4345,-81.9647,2.342,6.06,1111122 
SCCF RECON,ioos:station:SCCF:16:1,2009-11-06T19:00:00Z,26.4345,-81.9647,2.443,6.23,1111122 
SCCF RECON,ioos:station:SCCF:16:1,2009-11-06T20:00:00Z,26.4345,-81.9647,2.493,6.19,1111122 
SCCF RECON,ioos:station:SCCF:16:1,2009-11-06T21:00:00Z,26.4345,-81.9647,2.517,6.04,1111122 
SCCF RECON,ioos:station:SCCF:16:1,2009-11-06T22:00:00Z,26.4345,-81.9647,2.524,5.98,1111122 
SCCF RECON,ioos:station:SCCF:16:1,2009-11-06T23:00:00Z,26.4345,-81.9647,2.493,5.96,1111122 
SCCF RECON,ioos:station:SCCF:16:1,2009-11-07T00:00:00Z,26.4345,-81.9647,2.45,5.93,1111122 
SCCF RECON,ioos:station:SCCF:16:1,2009-11-07T01:00:00Z,26.4345,-81.9647,2.434,5.92,1111122 
SCCF RECON,ioos:station:SCCF:16:1,2009-11-07T02:00:00Z,26.4345,-81.9647,2.434,5.88,1111122 
SCCF RECON,ioos:station:SCCF:16:1,2009-11-07T03:00:00Z,26.4345,-81.9647,2.506,6.0,1111122 
SCCF RECON,ioos:station:SCCF:16:1,2009-11-07T04:00:00Z,26.4345,-81.9647,2.595,6.03,1111122 
SCCF RECON,ioos:station:SCCF:16:1,2009-11-07T05:00:00Z,26.4345,-81.9647,2.7,6.06,1111122 
SCCF RECON,ioos:station:SCCF:16:1,2009-11-07T06:00:00Z,26.4345,-81.9647,2.702,6.1,1111122 
SCCF RECON,ioos:station:SCCF:16:1,2009-11-07T07:00:00Z,26.4345,-81.9647,2.768,6.1,1111122 
SCCF RECON,ioos:station:SCCF:16:1,2009-11-07T08:00:00Z,26.4345,-81.9647,2.815,6.07,1111122 
SCCF RECON,ioos:station:SCCF:16:1,2009-11-07T09:00:00Z,26.4345,-81.9647,2.755,5.97,1111122 
SCCF RECON,ioos:station:SCCF:16:1,2009-11-07T10:00:00Z,26.4345,-81.9647,2.645,5.79,1111122 
SCCF RECON,ioos:station:SCCF:16:1,2009-11-07T11:00:00Z,26.4345,-81.9647,2.443,5.85,1111122 
SCCF RECON,ioos:station:SCCF:16:1,2009-11-07T12:00:00Z,26.4345,-81.9647,2.239,5.79,1111122 
SCCF RECON,ioos:station:SCCF:16:1,2009-11-07T13:00:00Z,26.4345,-81.9647,2.082,5.77,1111122 
SCCF RECON,ioos:station:SCCF:16:1,2009-11-07T14:00:00Z,26.4345,-81.9647,1.912,5.65,1111122 
SCCF RECON,ioos:station:SCCF:16:1,2009-11-07T15:00:00Z,26.4345,-81.9647,1.901,5.66,1111122 
SCCF RECON,ioos:station:SCCF:16:1,2009-11-07T16:00:00Z,26.4345,-81.9647,1.995,5.69,1111122 
SCCF RECON,ioos:station:SCCF:16:1,2009-11-07T17:00:00Z,26.4345,-81.9647,2.16,5.8,1111122 
SCCF RECON,ioos:station:SCCF:16:1,2009-11-07T18:00:00Z,26.4345,-81.9647,2.338,5.97,1111122 
SCCF RECON,ioos:station:SCCF:16:1,2009-11-07T19:00:00Z,26.4345,-81.9647,2.45,6.04,1111122 
SCCF RECON,ioos:station:SCCF:16:1,2009-11-07T20:00:00Z,26.4345,-81.9647,2.532,6.32,1111122 
SCCF RECON,ioos:station:SCCF:16:1,2009-11-07T21:00:00Z,26.4345,-81.9647,2.583,6.37,1111122 
SCCF RECON,ioos:station:SCCF:16:1,2009-11-07T22:00:00Z,26.4345,-81.9647,2.63,6.43,1111122 
SCCF RECON,ioos:station:SCCF:16:1,2009-11-07T23:00:00Z,26.4345,-81.9647,2.537,6.18,1111122 
SCCF RECON,ioos:station:SCCF:16:1,2009-11-08T00:00:00Z,26.4345,-81.9647,2.487,6.0,1111122 
SCCF RECON,ioos:station:SCCF:16:1,2009-11-08T01:00:00Z,26.4345,-81.9647,2.449,5.81,1111122 
SCCF RECON,ioos:station:SCCF:16:1,2009-11-08T02:00:00Z,26.4345,-81.9647,2.431,5.53,1111122 
SCCF RECON,ioos:station:SCCF:16:1,2009-11-08T03:00:00Z,26.4345,-81.9647,2.427,5.65,1111122 
SCCF RECON,ioos:station:SCCF:16:1,2009-11-08T04:00:00Z,26.4345,-81.9647,2.483,5.83,1111122 
SCCF RECON,ioos:station:SCCF:16:1,2009-11-08T05:00:00Z,26.4345,-81.9647,2.56,5.75,1111122 
SCCF RECON,ioos:station:SCCF:16:1,2009-11-08T06:00:00Z,26.4345,-81.9647,2.684,6.09,1111122 
SCCF RECON,ioos:station:SCCF:16:1,2009-11-08T07:00:00Z,26.4345,-81.9647,2.818,6.22,1111122 
SCCF RECON,ioos:station:SCCF:16:1,2009-11-08T08:00:00Z,26.4345,-81.9647,2.823,6.24,1111122 
SCCF RECON,ioos:station:SCCF:16:1,2009-11-08T09:00:00Z,26.4345,-81.9647,2.813,6.26,1111122 
SCCF RECON,ioos:station:SCCF:16:1,2009-11-08T10:00:00Z,26.4345,-81.9647,2.737,5.94,1111122 
SCCF RECON,ioos:station:SCCF:16:1,2009-11-08T11:00:00Z,26.4345,-81.9647,2.625,6.06,1111122 
SCCF RECON,ioos:station:SCCF:16:1,2009-11-08T12:00:00Z,26.4345,-81.9647,2.467,5.85,1111122 
SCCF RECON,ioos:station:SCCF:16:1,2009-11-08T13:00:00Z,26.4345,-81.9647,2.317,5.74,1111122 
SCCF RECON,ioos:station:SCCF:16:1,2009-11-08T14:00:00Z,26.4345,-81.9647,2.156,5.74,1111122 
SCCF RECON,ioos:station:SCCF:16:1,2009-11-08T15:00:00Z,26.4345,-81.9647,2.027,6.11,1111122 
SCCF RECON,ioos:station:SCCF:16:1,2009-11-08T16:00:00Z,26.4345,-81.9647,2.018,6.19,1111122 
SCCF RECON,ioos:station:SCCF:16:1,2009-11-08T17:00:00Z,26.4345,-81.9647,2.12,6.19,1111122 
SCCF RECON,ioos:station:SCCF:16:1,2009-11-08T18:00:00Z,26.4345,-81.9647,2.268,6.34,1111122 
SCCF RECON,ioos:station:SCCF:16:1,2009-11-08T19:00:00Z,26.4345,-81.9647,2.419,6.7,1111122 
SCCF RECON,ioos:station:SCCF:16:1,2009-11-08T20:00:00Z,26.4345,-81.9647,2.479,6.48,1111122 
SCCF RECON,ioos:station:SCCF:16:1,2009-11-08T21:00:00Z,26.4345,-81.9647,2.541,6.88,1111122 
SCCF RECON,ioos:station:SCCF:16:1,2009-11-08T22:00:00Z,26.4345,-81.9647,2.636,6.38,1111122 
SCCF RECON,ioos:station:SCCF:16:1,2009-11-08T23:00:00Z,26.4345,-81.9647,2.659,6.52,1111122 
SCCF RECON,ioos:station:SCCF:16:1,2009-11-09T00:00:00Z,26.4345,-81.9647,2.651,6.46,1111122 
SCCF RECON,ioos:station:SCCF:16:1,2009-11-09T01:00:00Z,26.4345,-81.9647,2.595,6.38,1111122 
SCCF RECON,ioos:station:SCCF:16:1,2009-11-09T02:00:00Z,26.4345,-81.9647,2.531,6.25,1111122 
SCCF RECON,ioos:station:SCCF:16:1,2009-11-09T03:00:00Z,26.4345,-81.9647,2.499,6.18,1111122 
SCCF RECON,ioos:station:SCCF:16:1,2009-11-09T04:00:00Z,26.4345,-81.9647,2.531,6.21,1111122 
SCCF RECON,ioos:station:SCCF:16:1,2009-11-09T05:00:00Z,26.4345,-81.9647,2.572,6.23,1111122 
SCCF RECON,ioos:station:SCCF:16:1,2009-11-09T06:00:00Z,26.4345,-81.9647,2.644,6.28,1111122 
SCCF RECON,ioos:station:SCCF:16:1,2009-11-09T07:00:00Z,26.4345,-81.9647,2.785,6.25,1111122 
SCCF RECON,ioos:station:SCCF:16:1,2009-11-09T08:00:00Z,26.4345,-81.9647,2.862,6.21,1111122 
SCCF RECON,ioos:station:SCCF:16:1,2009-11-09T09:00:00Z,26.4345,-81.9647,2.927,6.19,1111122 
SCCF RECON,ioos:station:SCCF:16:1,2009-11-09T10:00:00Z,26.4345,-81.9647,2.97,6.11,1111122 
SCCF RECON,ioos:station:SCCF:16:1,2009-11-09T11:00:00Z,26.4345,-81.9647,2.938,6.1,1111122 
SCCF RECON,ioos:station:SCCF:16:1,2009-11-09T12:00:00Z,26.4345,-81.9647,2.837,6.0,1111122 
SCCF RECON,ioos:station:SCCF:16:1,2009-11-09T13:00:00Z,26.4345,-81.9647,2.722,6.06,1111122 
SCCF RECON,ioos:station:SCCF:16:1,2009-11-09T14:00:00Z,26.4345,-81.9647,2.562,6.08,1111122 
SCCF RECON,ioos:station:SCCF:16:1,2009-11-09T15:00:00Z,26.4345,-81.9647,2.418,6.08,1111122 
SCCF RECON,ioos:station:SCCF:16:1,2009-11-09T16:00:00Z,26.4345,-81.9647,2.325,6.19,1111122 
SCCF RECON,ioos:station:SCCF:16:1,2009-11-09T17:00:00Z,26.4345,-81.9647,2.333,6.3,1111122 
SCCF RECON,ioos:station:SCCF:16:1,2009-11-09T18:00:00Z,26.4345,-81.9647,2.417,6.36,1111122 
SCCF RECON,ioos:station:SCCF:16:1,2009-11-09T19:00:00Z,26.4345,-81.9647,2.518,6.48,1111122 
SCCF RECON,ioos:station:SCCF:16:1,2009-11-09T20:00:00Z,26.4345,-81.9647,2.672,6.55,1111122 
SCCF RECON,ioos:station:SCCF:16:1,2009-11-09T21:00:00Z,26.4345,-81.9647,2.753,6.54,1111122 
SCCF RECON,ioos:station:SCCF:16:1,2009-11-09T22:00:00Z,26.4345,-81.9647,2.881,6.38,1111122 
SCCF RECON,ioos:station:SCCF:16:1,2009-11-09T23:00:00Z,26.4345,-81.9647,2.936,6.27,1111122 
SCCF RECON,ioos:station:SCCF:16:1,2009-11-10T00:00:00Z,26.4345,-81.9647,2.952,6.14,1111122 
SCCF RECON,ioos:station:SCCF:16:1,2009-11-10T01:00:00Z,26.4345,-81.9647,2.925,5.96,1111122 
SCCF RECON,ioos:station:SCCF:16:1,2009-11-10T02:00:00Z,26.4345,-81.9647,2.848,5.87,1111122 
SCCF RECON,ioos:station:SCCF:16:1,2009-11-10T03:00:00Z,26.4345,-81.9647,2.752,5.85,1111122 
SCCF RECON,ioos:station:SCCF:16:1,2009-11-10T04:00:00Z,26.4345,-81.9647,2.685,5.81,1111122 
SCCF RECON,ioos:station:SCCF:16:1,2009-11-10T05:00:00Z,26.4345,-81.9647,2.686,5.81,1111122 
SCCF RECON,ioos:station:SCCF:16:1,2009-11-10T06:00:00Z,26.4345,-81.9647,2.608,5.87,1111122 
SCCF RECON,ioos:station:SCCF:16:1,2009-11-10T07:00:00Z,26.4345,-81.9647,2.631,5.88,1111122 
SCCF RECON,ioos:station:SCCF:16:1,2009-11-10T08:00:00Z,26.4345,-81.9647,2.733,5.81,1111122 
SCCF RECON,ioos:station:SCCF:16:1,2009-11-10T09:00:00Z,26.4345,-81.9647,2.838,5.87,1111122 
SCCF RECON,ioos:station:SCCF:16:1,2009-11-10T10:00:00Z,26.4345,-81.9647,2.881,5.87,1111122 
SCCF RECON,ioos:station:SCCF:16:1,2009-11-10T11:00:00Z,26.4345,-81.9647,2.931,5.83,1111122 
SCCF RECON,ioos:station:SCCF:16:1,2009-11-10T12:00:00Z,26.4345,-81.9647,2.943,5.84,1111122 
SCCF RECON,ioos:station:SCCF:16:1,2009-11-10T13:00:00Z,26.4345,-81.9647,2.941,5.82,1111122 
SCCF RECON,ioos:station:SCCF:16:1,2009-11-10T14:00:00Z,26.4345,-81.9647,2.838,5.7,1111122 
SCCF RECON,ioos:station:SCCF:16:1,2009-11-10T15:00:00Z,26.4345,-81.9647,2.755,5.74,1111122 
SCCF RECON,ioos:station:SCCF:16:1,2009-11-10T16:00:00Z,26.4345,-81.9647,2.619,5.73,1111122 
SCCF RECON,ioos:station:SCCF:16:1,2009-11-10T17:00:00Z,26.4345,-81.9647,2.504,5.86,1111122 
SCCF RECON,ioos:station:SCCF:16:1,2009-11-10T18:00:00Z,26.4345,-81.9647,2.443,5.86,1111122 
SCCF RECON,ioos:station:SCCF:16:1,2009-11-10T19:00:00Z,26.4345,-81.9647,2.494,6.0,1111122 
SCCF RECON,ioos:station:SCCF:16:1,2009-11-10T20:00:00Z,26.4345,-81.9647,2.609,6.06,1111122 
SCCF RECON,ioos:station:SCCF:16:1,2009-11-10T21:00:00Z,26.4345,-81.9647,2.735,6.07,1111122 
SCCF RECON,ioos:station:SCCF:16:1,2009-11-10T22:00:00Z,26.4345,-81.9647,2.812,6.0,1111122 
SCCF RECON,ioos:station:SCCF:16:1,2009-11-10T23:00:00Z,26.4345,-81.9647,2.88,5.99,1111122 
SCCF RECON,ioos:station:SCCF:16:1,2009-11-11T00:00:00Z,26.4345,-81.9647,3.013,5.98,1111122 
SCCF RECON,ioos:station:SCCF:16:1,2009-11-11T01:00:00Z,26.4345,-81.9647,2.988,6.0,1111122 
SCCF RECON,ioos:station:SCCF:16:1,2009-11-11T02:00:00Z,26.4345,-81.9647,2.882,5.83,1111122 
SCCF RECON,ioos:station:SCCF:16:1,2009-11-11T03:00:00Z,26.4345,-81.9647,2.774,5.83,1111122 
SCCF RECON,ioos:station:SCCF:16:1,2009-11-11T04:00:00Z,26.4345,-81.9647,2.674,5.74,1111122 
SCCF RECON,ioos:station:SCCF:16:1,2009-11-11T05:00:00Z,26.4345,-81.9647,2.594,5.69,1111122 
SCCF RECON,ioos:station:SCCF:16:1,2009-11-11T06:00:00Z,26.4345,-81.9647,2.518,5.66,1111122 
SCCF RECON,ioos:station:SCCF:16:1,2009-11-11T07:00:00Z,26.4345,-81.9647,2.461,5.67,1111122 
SCCF RECON,ioos:station:SCCF:16:1,2009-11-11T08:00:00Z,26.4345,-81.9647,2.497,5.67,1111122 
SCCF RECON,ioos:station:SCCF:16:1,2009-11-11T09:00:00Z,26.4345,-81.9647,2.662,5.64,1111122 
SCCF RECON,ioos:station:SCCF:16:1,2009-11-11T10:00:00Z,26.4345,-81.9647,2.757,5.64,1111122 
SCCF RECON,ioos:station:SCCF:16:1,2009-11-11T11:00:00Z,26.4345,-81.9647,2.773,5.66,1111122 
SCCF RECON,ioos:station:SCCF:16:1,2009-11-11T12:00:00Z,26.4345,-81.9647,2.764,5.63,1111122 
SCCF RECON,ioos:station:SCCF:16:1,2009-11-11T13:00:00Z,26.4345,-81.9647,2.798,5.67,1111122 
SCCF RECON,ioos:station:SCCF:16:1,2009-11-11T14:00:00Z,26.4345,-81.9647,2.784,5.62,1111122 
SCCF RECON,ioos:station:SCCF:16:1,2009-11-11T15:00:00Z,26.4345,-81.9647,2.748,5.47,1111122 
SCCF RECON,ioos:station:SCCF:16:1,2009-11-11T16:00:00Z,26.4345,-81.9647,2.631,5.51,1111122 
SCCF RECON,ioos:station:SCCF:16:1,2009-11-11T17:00:00Z,26.4345,-81.9647,2.51,5.6,1111122 
SCCF RECON,ioos:station:SCCF:16:1,2009-11-11T18:00:00Z,26.4345,-81.9647,2.349,5.7,1111122 
SCCF RECON,ioos:station:SCCF:16:1,2009-11-11T19:00:00Z,26.4345,-81.9647,2.288,5.84,1111122 